| time (UTC) | temp F | wind direction | speed knots | gust knots | rain 1hr in | rain 24hr in | rain mn in | humidity % | barometer mb |
| 20260506214530 | 47 | 317 | 0.0 | 1.7 | 0.00 | 0.27 | 0.27 | 91 | 1009.5 |
| 20260506213005 | 47 | 321 | 0.0 | 0.9 | 0.00 | 0.27 | 0.27 | 90 | 1009.4 |
| 20260506211542 | 47 | 321 | 0.0 | 1.7 | 0.00 | 0.27 | 0.27 | 90 | 1009.3 |
| 20260506210016 | 47 | 319 | 0.0 | 2.6 | 0.00 | 0.27 | 0.27 | 90 | 1009.2 |
| 20260506204555 | 47 | 318 | 0.0 | 1.7 | 0.00 | 0.27 | 0.27 | 90 | 1009.1 |
| 20260506203029 | 47 | 312 | 0.0 | 0.9 | 0.00 | 0.27 | 0.27 | 90 | 1009.2 |
| 20260506201505 | 47 | 305 | 0.0 | 2.6 | 0.00 | 0.27 | 0.27 | 90 | 1009.1 |
| 20260506200043 | 47 | 315 | 0.0 | 1.7 | 0.00 | 0.27 | 0.27 | 90 | 1009.1 |
| 20260506194519 | 47 | 320 | 0.0 | 2.6 | 0.00 | 0.27 | 0.27 | 90 | 1009.1 |
| 20260506193104 | 47 | 313 | 0.0 | 2.6 | 0.00 | 0.27 | 0.27 | 89 | 1008.9 |
| 20260506191528 | 47 | 317 | 0.0 | 2.6 | 0.01 | 0.27 | 0.27 | 90 | 1008.9 |
| 20260506190003 | 47 | 319 | 0.0 | 1.7 | 0.01 | 0.27 | 0.27 | 90 | 1008.7 |
| 20260506184539 | 47 | 319 | 0.9 | 3.5 | 0.02 | 0.27 | 0.27 | 90 | 1008.6 |
| 20260506183015 | 47 | 325 | 0.0 | 2.6 | 0.02 | 0.27 | 0.27 | 90 | 1008.5 |
| 20260506181551 | 47 | 340 | 0.9 | 3.5 | 0.02 | 0.26 | 0.26 | 89 | 1008.3 |
| 20260506180027 | 47 | 5 | 0.0 | 1.7 | 0.03 | 0.26 | 0.26 | 89 | 1008.2 |
| 20260506174501 | 47 | 360 | 0.0 | 3.5 | 0.02 | 0.25 | 0.25 | 88 | 1008.1 |
| 20260506173040 | 47 | 345 | 1.7 | 4.3 | 0.02 | 0.24 | 0.24 | 88 | 1008.1 |
| 20260506171513 | 48 | 5 | 2.6 | 7.8 | 0.02 | 0.24 | 0.24 | 87 | 1008.0 |
| 20260506170104 | 48 | 347 | 0.9 | 4.3 | 0.01 | 0.23 | 0.23 | 87 | 1007.9 |
| 20260506164527 | 48 | 351 | 0.9 | 4.3 | 0.02 | 0.23 | 0.23 | 86 | 1007.9 |
| 20260506163003 | 48 | 346 | 0.0 | 3.5 | 0.02 | 0.22 | 0.22 | 86 | 1007.9 |
| 20260506161539 | 48 | 38 | 1.7 | 4.3 | 0.02 | 0.22 | 0.22 | 85 | 1007.9 |
| 20260506160020 | 48 | 15 | 0.9 | 3.5 | 0.02 | 0.22 | 0.22 | 84 | 1008.0 |
| 20260506154609 | 48 | 11 | 0.9 | 4.3 | 0.02 | 0.21 | 0.21 | 85 | 1008.0 |
| 20260506153029 | 48 | 360 | 0.9 | 5.2 | 0.02 | 0.20 | 0.20 | 85 | 1008.0 |
| 20260506151504 | 48 | 34 | 1.7 | 3.5 | 0.03 | 0.20 | 0.20 | 85 | 1008.0 |
| 20260506150041 | 48 | 355 | 0.9 | 7.0 | 0.03 | 0.20 | 0.20 | 84 | 1008.0 |
| 20260506144516 | 48 | 23 | 0.9 | 4.3 | 0.03 | 0.19 | 0.19 | 86 | 1007.9 |
| 20260506143104 | 48 | 11 | 0.0 | 3.5 | 0.02 | 0.18 | 0.18 | 86 | 1007.8 |
| 20260506141532 | 48 | 5 | 0.9 | 4.3 | 0.02 | 0.17 | 0.17 | 85 | 1007.9 |
| 20260506140003 | 48 | 344 | 0.9 | 7.8 | 0.02 | 0.17 | 0.17 | 85 | 1007.8 |
| 20260506134542 | 47 | 26 | 1.7 | 5.2 | 0.02 | 0.16 | 0.16 | 84 | 1007.9 |
| 20260506133015 | 48 | 20 | 3.5 | 7.8 | 0.03 | 0.16 | 0.16 | 85 | 1007.9 |
| 20260506131552 | 48 | 336 | 0.9 | 5.2 | 0.04 | 0.15 | 0.15 | 86 | 1007.9 |
| 20260506130030 | 48 | 355 | 0.9 | 5.2 | 0.04 | 0.14 | 0.14 | 85 | 1007.8 |
| 20260506124555 | 47 | 338 | 1.7 | 5.2 | 0.05 | 0.13 | 0.13 | 86 | 1007.7 |
| 20260506123034 | 47 | 347 | 0.0 | 8.7 | 0.05 | 0.13 | 0.13 | 85 | 1007.7 |
| 20260506121505 | 47 | 5 | 1.7 | 8.7 | 0.05 | 0.11 | 0.11 | 85 | 1007.6 |
| 20260506120041 | 47 | 27 | 2.6 | 7.0 | 0.05 | 0.10 | 0.10 | 84 | 1007.6 |
| 20260506114513 | 47 | 33 | 1.7 | 7.8 | 0.04 | 0.09 | 0.09 | 83 | 1007.3 |
| 20260506073109 | 50 | 69 | 7.0 | 13.9 | 0.00 | 0.05 | 0.05 | 71 | 1006.2 |
| 20260506071535 | 49 | 82 | 4.3 | 12.2 | 0.00 | 0.05 | 0.05 | 72 | 1006.0 |
| 20260506061552 | 48 | 329 | 1.7 | 7.0 | 0.00 | 0.05 | 0.05 | 78 | 1006.0 |
| 20260506044520 | 47 | 32 | 2.6 | 8.7 | 0.01 | 0.05 | 0.05 | 78 | 1006.2 |
| 20260506043052 | 47 | 23 | 0.0 | 2.6 | 0.01 | 0.05 | 0.05 | 83 | 1006.2 |
| 20260506041528 | 47 | 346 | 0.0 | 1.7 | 0.01 | 0.05 | 0.05 | 85 | 1006.2 |
| 20260506040105 | 47 | 23 | 0.0 | 2.6 | 0.00 | 0.04 | 0.04 | 84 | 1006.2 |
| 20260506034537 | 47 | 5 | 0.0 | 1.7 | 0.00 | 0.08 | 0.04 | 84 | 1006.2 |
| 20260506033011 | 47 | 360 | 0.0 | 2.6 | 0.01 | 0.08 | 0.04 | 85 | 1006.2 |
| 20260506031558 | 47 | 5 | 0.0 | 4.3 | 0.01 | 0.08 | 0.04 | 83 | 1006.3 |
| 20260506030022 | 48 | 19 | 1.7 | 5.2 | 0.01 | 0.08 | 0.04 | 81 | 1006.4 |
| 20260506024558 | 48 | 15 | 0.0 | 5.2 | 0.02 | 0.12 | 0.04 | 82 | 1006.4 |
| 20260506023034 | 48 | 23 | 0.9 | 5.2 | 0.03 | 0.11 | 0.03 | 84 | 1006.5 |
| 20260506021510 | 48 | 347 | 0.9 | 5.2 | 0.03 | 0.11 | 0.03 | 84 | 1006.6 |
| 20260506020043 | 48 | 12 | 0.0 | 5.2 | 0.03 | 0.11 | 0.03 | 83 | 1006.7 |
| 20260506014517 | 49 | 30 | 0.9 | 6.1 | 0.02 | 0.10 | 0.02 | 82 | 1006.7 |
| 20260506013052 | 50 | 30 | 2.6 | 8.7 | 0.00 | 0.09 | 0.00 | 79 | 1006.8 |
| 20260506011528 | 50 | 22 | 3.5 | 9.6 | 0.00 | 0.09 | 0.00 | 76 | 1006.8 |
| 20260506010003 | 51 | 30 | 2.6 | 7.8 | 0.00 | 0.09 | 0.00 | 76 | 1006.8 |
| 20260506004538 | 51 | 355 | 0.9 | 7.8 | 0.00 | 0.24 | 0.00 | 76 | 1006.9 |
| 20260506003014 | 51 | 39 | 3.5 | 7.8 | 0.00 | 0.24 | 0.00 | 77 | 1007.0 |
| 20260506001548 | 51 | 31 | 1.7 | 7.8 | 0.00 | 0.24 | 0.00 | 78 | 1007.0 |
| 20260506000023 | 51 | 42 | 1.7 | 5.2 | 0.00 | 0.24 | 0.00 | 79 | 1007.1 |
| 20260505234606 | 51 | 26 | 2.6 | 5.2 | 0.00 | 0.37 | 0.00 | 79 | 1007.4 |
| 20260505233031 | 51 | 12 | 1.7 | 5.2 | 0.00 | 0.37 | 0.00 | 79 | 1007.4 |
| 20260505231507 | 51 | 5 | 0.9 | 1.7 | 0.00 | 0.37 | 0.00 | 86 | 1007.4 |
| 20260505230042 | 51 | 348 | 0.0 | 1.7 | 0.00 | 0.37 | 0.00 | 87 | 1007.6 |
| 20260505224519 | 51 | 22 | 0.0 | 4.3 | 0.00 | 0.62 | 0.00 | 86 | 1007.5 |
| 20260505223056 | 51 | 24 | 0.0 | 2.6 | 0.00 | 0.62 | 0.00 | 88 | 1007.7 |
| 20260505221530 | 51 | 342 | 0.0 | 2.6 | 0.00 | 0.62 | 0.00 | 89 | 1007.7 |
| 20260505220004 | 51 | 342 | 0.9 | 2.6 | 0.00 | 0.62 | 0.00 | 89 | 1007.7 |